Location: Newark
(34.0131°N, 4.3314°W)
Time: 12:23:47
(UTC+00:00)

Transit 4A - Visible Passes

Search period start: 20 October 2019 00:00
Search period end: 30 October 2019 00:00
Orbit: 867 x 978 km, 66.8° (Epoch: 19 October)

Date Brightness Start Highest point End Pass type
(mag) Time Alt. Az. Time Alt. Az. Time Alt. Az.
20 Oct 8.9 04:00:37 20° S 04:04:41 45° ESE 04:10:37 10° NE visible
20 Oct 8.9 05:45:49 10° WSW 05:51:10 28° NW 05:56:29 10° N visible
21 Oct 8.1 04:11:36 40° S 04:13:55 69° ESE 04:20:10 10° NNE visible
21 Oct 9.3 05:56:23 10° W 06:00:48 19° NW 06:05:10 10° N visible
22 Oct 10.5 02:38:34 13° E 02:38:34 13° E 02:40:30 10° ENE visible
22 Oct 7.8 04:22:10 63° SW 04:23:14 79° WNW 04:29:32 10° NNE visible
23 Oct 10.2 02:48:53 18° ENE 02:48:53 18° ENE 02:51:21 10° ENE visible
23 Oct 8.0 04:32:28 53° WNW 04:32:38 53° WNW 04:38:44 10° NNE visible
24 Oct 10.0 02:58:59 22° ENE 02:58:59 22° ENE 03:01:24 10° NE visible
24 Oct 8.6 04:42:33 35° NW 04:42:33 35° NW 04:47:48 10° N visible
25 Oct 9.9 03:08:54 22° NE 03:08:54 22° NE 03:11:06 10° NE visible
25 Oct 9.1 04:52:29 24° NW 04:52:29 24° NW 04:56:39 10° N visible
26 Oct 9.9 03:18:42 21° NNE 03:18:42 21° NNE 03:20:35 10° NNE visible
26 Oct 9.5 05:02:15 16° NW 05:02:15 16° NW 05:05:12 10° N visible
27 Oct 10.0 03:28:23 18° NNE 03:28:23 18° NNE 03:29:53 10° NNE visible
27 Oct 9.9 05:11:56 11° NW 05:11:56 11° NW 05:12:56 10° NNW visible
28 Oct 10.1 03:37:59 15° N 03:37:59 15° N 03:39:02 10° NNE visible
29 Oct 10.2 03:47:30 12° N 03:47:30 12° N 03:48:01 10° N visible
